Погода в Новом Ганькине

Россия / Самарская область     53°56′54″N   51°50′35″E
темп.,
°C
ветер,
м/с
пор.,
м/с
влажн.,
%
обл.,
%
осадки,
мм/ч
давл.,
гПа
погр.,
м
17 мая, пн
пн1701:00+19ююв34565 0.0 101839
04:00+17ююв335812 0.0 101936
07:00+20ю265790 0.0 1019167
10:00+26ю454122 0.0 1019402
13:00+29ююз443210 0.0 10181277
16:00+30ююз442710 0.0 10183027
19:00+27ююв22405 0.0 101716
22:00+21зюз11473 0.0 101811
18 мая, вт
вт1801:00+20ю22477 0.0 101811
04:00+18юз11465 0.0 101811
07:00+21св00465 0.0 101858
10:00+27св00340 0.0 1018459
13:00+30зюз12210 0.0 10172931
16:00+30юз01205 0.0 10173283
19:00+27св123942 0.0 101638
22:00+19всв4127790 0.6 1018280
19 мая, ср
ср1901:00+17в513709 0.0 1018286
04:00+15в412745 0.0 1018249
07:00+17в612705 0.0 1019411
10:00+22в68500 0.0 1019848
13:00+25вюв78410 0.0 10181462
16:00+25вюв78400 0.0 10181654
19:00+22в59550 0.0 1018297
22:00+17вюв412620 0.0 1019233
20 мая, чт
чт2001:00+16юв514615 0.0 1020363
04:00+13вюв4136926 0.0 1020284
07:00+16юв512635 0.0 1020448
10:00+20юв810455 0.0 10201099
13:00+23юв793723 0.0 10201746
16:00+23юв68350 0.0 10191951
19:00+20юв3754100 0.0 1018151
22:00+16вюв3460100 0.0 101949
21 мая, пт
пт2101:00+14вюв3359100 0.0 101828
04:00+15вюв3455100 0.0 101972
07:00+17вюв375828 0.0 1019212
10:00+21юв564487 0.0 1018941
13:00+23юв583588 0.0 10182614
16:00+22ю464875 0.0 1017860
19:00+21юз35550 0.0 1017113
22:00+16ююв11555 0.0 101811